�N����,����,����,����,����,�C��,���x,�~����,�S�V����,�ő�u�ԕ���,,,
,,,,,,,,,����,����,����,�N��
yyyy/mm/dd,hh:mm:ss,(16),16����,m/s,��,%,mm,KW/�u,(16),16����,m/s,Time
2013/7/1,1:00:00,13,���k��,0.8,8.1,99.2,0,0,13,���k��,1.5,43
2013/7/1,2:00:00,13,���k��,1.3,8.4,99.6,0,0,12,��,2.2,53
2013/7/1,3:00:00,13,���k��,1.6,7.7,99.7,0,0,13,���k��,2.1,56
2013/7/1,4:00:00,12,��,0.4,8.9,100,0,0,13,���k��,1.8,2
2013/7/1,5:00:00,11,���쐼,0.5,9.9,100,0,0.04,12,��,1.8,32
2013/7/1,6:00:00,2,�k��,0.4,12.5,100,0,0.1,12,��,1.6,31
2013/7/1,7:00:00,2,�k��,1.4,13.8,100,0,0.17,4,��,2.6,38
2013/7/1,8:00:00,3,���k��,2.3,14.2,100,0,0.27,4,��,3.9,34
2013/7/1,9:00:00,3,���k��,2.7,15.2,94.2,0,0.39,2,�k��,3.9,42
2013/7/1,10:00:00,4,��,2.9,17.7,86.6,0,0.71,3,���k��,5.2,36
2013/7/1,11:00:00,4,��,3.6,18.6,82.4,0,1.01,4,��,5.5,48
2013/7/1,12:00:00,4,��,3.5,18.8,76.9,0,0.95,4,��,5.2,55
2013/7/1,13:00:00,6,�쓌,2.6,20.3,78.6,0,0.97,5,���쓌,5.1,17
2013/7/1,14:00:00,9,��쐼,5.1,18.2,81.9,0,0.89,8,��,9.9,37
2013/7/1,15:00:00,8,��,6.2,17.2,84.3,0,0.74,9,��쐼,11.3,58
2013/7/1,16:00:00,8,��,5.7,16.9,86.4,0,0.59,8,��,12.4,7
2013/7/1,17:00:00,8,��,4.3,17.5,83.9,0,0.38,9,��쐼,11.1,20
2013/7/1,18:00:00,8,��,4.7,15.7,91.2,0,0.21,9,��쐼,9.7,59
2013/7/1,19:00:00,9,��쐼,5.6,15,95.4,0,0.06,8,��,10.7,5
2013/7/1,20:00:00,9,��쐼,4,14.6,97,0,0,9,��쐼,10.7,4
2013/7/1,21:00:00,9,��쐼,4.2,14.4,96.7,0,0,8,��,8.5,43
2013/7/1,22:00:00,7,��쓌,0.4,13.5,96.7,0,0,8,��,6.1,18
2013/7/1,23:00:00,16,�k,0.8,13.3,99,0,0,5,���쓌,2.3,9
2013/7/1,0:00:00,13,���k��,0.4,12.2,99.2,0,0,16,�k,2.3,2
2013/7/2,1:00:00,8,��,2.4,12.5,99.6,0,0,8,��,2.9,56
2013/7/2,2:00:00,3,���k��,1.3,13.2,99.8,0,0,7,��쓌,4,15
2013/7/2,3:00:00,1,�k�k��,1.7,13.3,99.9,0,0,1,�k�k��,2.4,54
2013/7/2,4:00:00,16,�k,0.8,14.3,100,0,0,1,�k�k��,2.2,59
2013/7/2,5:00:00,1,�k�k��,1.6,14.2,100,0,0.02,1,�k�k��,2.8,13
2013/7/2,6:00:00,16,�k,1.4,14.5,100,0,0.08,2,�k��,2.7,57
2013/7/2,7:00:00,2,�k��,1.6,14.7,99.8,0,0.15,2,�k��,2.9,55
2013/7/2,8:00:00,16,�k,1.1,15.5,99.4,0,0.2,1,�k�k��,2.5,9
2013/7/2,9:00:00,5,���쓌,2.8,16,95.5,0,0.3,4,��,3.7,57
2013/7/2,10:00:00,5,���쓌,2.8,16.3,91,0,0.47,6,�쓌,4,57
2013/7/2,11:00:00,4,��,2.7,17.4,88,0,0.66,4,��,4.8,10
2013/7/2,12:00:00,5,���쓌,3.9,17,88.2,0,0.78,6,�쓌,5.4,56
2013/7/2,13:00:00,5,���쓌,2.2,16.7,89.7,0,0.62,5,���쓌,5.6,1
2013/7/2,14:00:00,4,��,4.2,18.2,82,0,0.66,4,��,6.2,48
2013/7/2,15:00:00,8,��,5.6,19.2,77.4,0,0.75,8,��,10.2,45
2013/7/2,16:00:00,9,��쐼,5.1,20.1,74.5,0,0.58,9,��쐼,11.1,49
2013/7/2,17:00:00,8,��,3.5,19.9,72.2,0,0.39,9,��쐼,8.8,2
2013/7/2,18:00:00,9,��쐼,3.7,18,74.6,0,0.2,8,��,8,15
2013/7/2,19:00:00,8,��,3.7,16.3,82,0,0.05,9,��쐼,8.3,40
2013/7/2,20:00:00,9,��쐼,3.7,16,79.5,0,0,9,��쐼,8,17
2013/7/2,21:00:00,8,��,3.4,15.2,84.4,0,0,9,��쐼,7.4,7
2013/7/2,22:00:00,9,��쐼,3.4,15.1,84.9,0,0,9,��쐼,7.2,10
2013/7/2,23:00:00,9,��쐼,3,14.6,91.9,0,0,8,��,6.9,46
2013/7/2,0:00:00,9,��쐼,3.7,14.9,93.5,0,0,9,��쐼,8,18
2013/7/3,1:00:00,8,��,3.9,14.5,93.3,0,0,8,��,7.9,17
2013/7/3,2:00:00,8,��,3.4,14.2,96.6,0,0,8,��,7.1,28
2013/7/3,3:00:00,8,��,3.2,14.5,96.8,0,0,8,��,7.4,27
2013/7/3,4:00:00,8,��,2.3,14.7,98.4,0,0.01,8,��,6.3,36
2013/7/3,5:00:00,7,��쓌,2.3,14.6,99.1,0,0.04,8,��,6.2,3
2013/7/3,6:00:00,6,�쓌,2.8,14.5,99.5,0,0.07,6,�쓌,5.9,37
2013/7/3,7:00:00,7,��쓌,2.1,15.5,99.7,0,0.08,7,��쓌,5.1,0
2013/7/3,8:00:00,7,��쓌,1.7,16.3,99.5,0,0.22,7,��쓌,4.4,33
2013/7/3,9:00:00,7,��쓌,2.3,16.2,96.9,0,0.31,7,��쓌,5.4,59
2013/7/3,10:00:00,6,�쓌,2.9,15.7,94.2,0,0.35,7,��쓌,6,24
2013/7/3,11:00:00,6,�쓌,2.8,15.6,96.3,0,0.3,6,�쓌,5.4,35
2013/7/3,12:00:00,7,��쓌,3,16,95.5,0,0.29,6,�쓌,6.4,25
2013/7/3,13:00:00,7,��쓌,3.3,16.5,93.2,0,0.32,7,��쓌,6.5,54
2013/7/3,14:00:00,6,�쓌,3.5,16.3,91.3,0,0.43,7,��쓌,8,35
2013/7/3,15:00:00,6,�쓌,2.6,15.9,95.8,0,0.16,7,��쓌,6,6
2013/7/3,16:00:00,7,��쓌,3.6,15.8,94.8,0,0.14,7,��쓌,6.6,44
2013/7/3,17:00:00,7,��쓌,3.6,15.2,96.9,0,0.11,7,��쓌,7.7,13
2013/7/3,18:00:00,7,��쓌,3.1,15.3,98.6,0,0.04,7,��쓌,6.5,46
2013/7/3,19:00:00,7,��쓌,2.2,15.1,98.5,0,0.01,7,��쓌,6.5,20
2013/7/3,20:00:00,6,�쓌,1.8,14.6,98.3,0,0,7,��쓌,4.6,13
2013/7/3,21:00:00,7,��쓌,2,14.6,99,0,0,7,��쓌,4.4,49
2013/7/3,22:00:00,5,���쓌,1.7,14.2,99.4,0,0,5,���쓌,2.5,57
2013/7/3,23:00:00,6,�쓌,1.3,14.2,99.6,0,0,6,�쓌,3.6,38
2013/7/3,0:00:00,6,�쓌,2.4,13.6,99.7,0,0,7,��쓌,6.1,31
2013/7/4,1:00:00,6,�쓌,3.2,14.2,99.8,0,0,7,��쓌,7.4,46
2013/7/4,2:00:00,7,��쓌,2.2,14.5,99.9,1,0,7,��쓌,8.1,31
2013/7/4,3:00:00,6,�쓌,2.7,14.5,100,0,0,6,�쓌,4.7,51
2013/7/4,4:00:00,6,�쓌,3.6,14.4,99.9,3,0,6,�쓌,7.2,5
2013/7/4,5:00:00,5,���쓌,3.7,14.3,100,5,0.01,5,���쓌,6.4,36
2013/7/4,6:00:00,5,���쓌,4.5,14.5,100,4,0.01,6,�쓌,7.7,41
2013/7/4,7:00:00,9,��쐼,3.9,15.2,100,1.5,0.03,6,�쓌,9.6,21
2013/7/4,8:00:00,6,�쓌,3.1,15.2,100,0.5,0.11,8,��,7.4,5
2013/7/4,9:00:00,6,�쓌,1.6,15.3,99.9,0,0.15,6,�쓌,5.6,6
2013/7/4,10:00:00,6,�쓌,1.9,15.8,99.9,0,0.18,6,�쓌,4.2,51
2013/7/4,11:00:00,6,�쓌,2.1,16.2,99.8,0,0.24,6,�쓌,4.8,14
2013/7/4,12:00:00,6,�쓌,1.4,16.5,99.6,0,0.24,7,��쓌,3.7,11
2013/7/4,13:00:00,5,���쓌,2.3,17.3,98.6,0,0.41,6,�쓌,3.9,45
2013/7/4,14:00:00,5,���쓌,1.3,17.8,95.9,0,0.42,6,�쓌,3.5,1
2013/7/4,15:00:00,4,��,1.9,17.2,96.4,0,0.21,5,���쓌,2.9,0
2013/7/4,16:00:00,4,��,2.2,16.3,96.8,0,0.11,4,��,3.2,58
2013/7/4,17:00:00,3,���k��,2.1,15.8,98.9,0,0.06,3,���k��,3.4,34
2013/7/4,18:00:00,2,�k��,3.2,15.4,99.3,0,0.02,2,�k��,5.2,52
2013/7/4,19:00:00,2,�k��,2.1,15.7,99.5,0,0.01,4,��,4.1,1
2013/7/4,20:00:00,2,�k��,1.9,15.8,99.6,0,0,2,�k��,4.3,20
2013/7/4,21:00:00,15,�k�k��,0.7,16.1,99.7,0,0,2,�k��,3.6,18
2013/7/4,22:00:00,1,�k�k��,1,16.2,99.6,0,0,15,�k�k��,2,13
2013/7/4,23:00:00,2,�k��,1.4,16.2,99.7,0,0,1,�k�k��,2.9,21
2013/7/4,0:00:00,3,���k��,1.2,15.9,99.8,0,0,2,�k��,2.7,10
2013/7/5,1:00:00,4,��,1.8,15.4,99.9,0,0,4,��,2.5,51
2013/7/5,2:00:00,4,�É�,0.2,14.9,100,0,0,3,���k��,2.5,12
2013/7/5,3:00:00,1,�k�k��,0.3,14.9,100,0,0,6,�쓌,1.3,14
2013/7/5,4:00:00,4,��,0.8,14.6,100,0,0,5,���쓌,2.2,25
2013/7/5,5:00:00,4,�É�,0,15.1,100,0,0.02,4,��,2,3
2013/7/5,6:00:00,6,�쓌,0.6,15.8,100,0,0.05,5,���쓌,1.1,55
2013/7/5,7:00:00,7,��쓌,0.5,16.1,100,0.5,0.08,5,���쓌,1.5,1
2013/7/5,8:00:00,3,���k��,1.7,15.8,100,0,0.07,3,���k��,2.5,57
2013/7/5,9:00:00,2,�k��,1.2,16.6,100,0,0.1,2,�k��,2.2,4
2013/7/5,10:00:00,5,���쓌,1.5,17.9,99.9,0,0.19,3,���k��,2.4,59
2013/7/5,11:00:00,3,���k��,2.1,18.6,99.6,0,0.34,4,��,3.4,19
2013/7/5,12:00:00,4,��,3.9,17.1,98.4,0,0.24,4,��,5.9,56
2013/7/5,13:00:00,2,�k��,3.5,17.1,99,0,0.17,3,���k��,6.6,20
2013/7/5,14:00:00,2,�k��,2.8,17.5,98.7,0,0.13,2,�k��,6.1,15
2013/7/5,15:00:00,2,�k��,3.3,17.9,98.4,0,0.14,2,�k��,6,8
2013/7/5,16:00:00,2,�k��,3.6,17.5,98.8,0,0.1,2,�k��,5.2,51
2013/7/5,17:00:00,1,�k�k��,2.1,17.5,99.3,0,0.04,2,�k��,4.5,8
2013/7/5,18:00:00,16,�k,1.6,17.5,99.5,0,0.02,1,�k�k��,3.5,27
2013/7/5,19:00:00,1,�k�k��,2,17.8,99.4,0,0.01,16,�k,4.6,40
2013/7/5,20:00:00,12,��,1,17.9,99.3,0,0,1,�k�k��,2.1,0
2013/7/5,21:00:00,13,���k��,0.6,18.1,99.2,0,0,14,�k��,2.2,25
2013/7/5,22:00:00,6,�쓌,0.9,16.6,99,0,0,12,��,1.8,15
2013/7/5,23:00:00,2,�k��,0.6,15.9,99.5,0,0,4,��,1.5,30
2013/7/5,0:00:00,4,��,0.3,16.1,99.8,0,0,3,���k��,0.8,28
2013/7/6,1:00:00,10,�쐼,0.3,16.3,99.8,0,0,3,���k��,0.8,6
2013/7/6,2:00:00,14,�É�,0.1,16.6,99.9,0,0,8,��,1.7,17
2013/7/6,3:00:00,16,�k,0.7,16.4,99.9,0,0,16,�k,1.6,49
2013/7/6,4:00:00,11,���쐼,0.8,16.4,100,0,0,11,���쐼,1.4,35
2013/7/6,5:00:00,7,��쓌,0.5,17.1,100,0,0.04,11,���쐼,1.9,27
2013/7/6,6:00:00,9,��쐼,0.7,17.5,99.9,0,0.09,9,��쐼,2.6,12
2013/7/6,7:00:00,11,���쐼,0.6,21,95.2,0,0.37,11,���쐼,2.9,34
2013/7/6,8:00:00,7,��쓌,2.4,21.5,90.7,0,0.47,7,��쓌,3.3,57
2013/7/6,9:00:00,7,��쓌,1.4,22.4,86,0,0.56,7,��쓌,3,20
2013/7/6,10:00:00,9,��쐼,2.1,20.4,88.2,0,0.34,10,�쐼,3.9,59
2013/7/6,11:00:00,7,��쓌,2.6,21.3,91,0,0.25,10,�쐼,4.1,0
2013/7/6,12:00:00,13,�É�,0.2,24.5,86.9,0,0.6,7,��쓌,3.4,2
2013/7/6,13:00:00,7,��쓌,2.8,24.1,81.2,0,0.93,7,��쓌,4.4,31
2013/7/6,14:00:00,7,��쓌,1.8,23,81.4,0,0.62,6,�쓌,4.5,3
2013/7/6,15:00:00,5,���쓌,0.7,24.2,81.4,0,0.31,7,��쓌,2.2,7
2013/7/6,16:00:00,8,��,1.5,25.3,79,0,0.49,7,��쓌,2.6,59
2013/7/6,17:00:00,6,�쓌,0.9,25.9,77.4,0,0.33,6,�쓌,2.1,39
2013/7/6,18:00:00,6,�쓌,1.4,24.1,81,0,0.2,6,�쓌,2,51
2013/7/6,19:00:00,4,��,1,21.7,87.8,0,0.05,4,��,2.5,59
2013/7/6,20:00:00,3,���k��,2,16.9,95.2,0,0,4,��,3.8,4
2013/7/6,21:00:00,3,���k��,1.5,16.7,96.3,0,0,2,�k��,2.5,10
2013/7/6,22:00:00,1,�k�k��,0.4,16.8,97.2,0,0,4,��,1.9,16
2013/7/6,23:00:00,13,���k��,0.9,17.1,98.3,0,0,11,���쐼,1.4,18
2013/7/6,0:00:00,15,�k�k��,0.9,17.3,98.2,0,0,11,���쐼,2.6,43
2013/7/7,1:00:00,12,��,1.4,17,99,0,0,11,���쐼,2.2,50
2013/7/7,2:00:00,5,���쓌,0.8,16.6,99.2,0,0,12,��,2.4,2
2013/7/7,3:00:00,13,���k��,1.3,16.2,99.4,0,0,12,��,1.8,59
2013/7/7,4:00:00,14,�k��,0.7,17.2,99.6,0,0,13,���k��,3.7,33
2013/7/7,5:00:00,12,��,1.6,18,99.6,0,0.04,13,���k��,2.1,54
2013/7/7,6:00:00,11,���쐼,0.6,20.7,95.3,0,0.19,12,��,2.2,19
2013/7/7,7:00:00,2,�k��,0.5,24.6,85,0,0.37,15,�k�k��,1.9,5
2013/7/7,8:00:00,8,��,2,25.2,81.7,0,0.57,7,��쓌,3.2,45
2013/7/7,9:00:00,6,�쓌,2.3,23.3,79.1,0,0.73,6,�쓌,4.2,43
2013/7/7,10:00:00,7,��쓌,2,26.5,78.5,0,0.87,7,��쓌,4.1,28
2013/7/7,11:00:00,7,��쓌,2.8,27.7,66.7,0,0.97,6,�쓌,4.6,48
2013/7/7,12:00:00,8,��,3.6,28.1,61,0,1,8,��,6.2,59
2013/7/7,13:00:00,7,��쓌,3,28.4,58.4,0,0.96,8,��,6,0
2013/7/7,14:00:00,8,��,3.4,28.1,61.6,0,0.9,7,��쓌,6.2,52
2013/7/7,15:00:00,9,��쐼,3.2,28.3,60.6,0,0.75,9,��쐼,5.5,29
2013/7/7,16:00:00,7,��쓌,2.1,26.9,68.9,0,0.59,8,��,5.1,26
2013/7/7,17:00:00,7,��쓌,1.1,27.1,72.4,0,0.41,7,��쓌,3.7,28
2013/7/7,18:00:00,3,���k��,0.8,26.5,78.9,0,0.21,8,��,2.4,2
2013/7/7,19:00:00,2,�k��,1.3,22.6,85.8,0,0.04,2,�k��,2,53
2013/7/7,20:00:00,2,�k��,0.5,20.7,89.1,0,0,1,�k�k��,1.9,39
2013/7/7,21:00:00,2,�k��,1.3,19.2,88.7,0,0,3,���k��,6.9,13
2013/7/7,22:00:00,15,�É�,0.1,17.7,96.2,0,0,2,�k��,2.1,7
2013/7/7,23:00:00,12,��,1.6,17.5,98,0,0,13,���k��,2.4,51
2013/7/7,0:00:00,13,���k��,3.2,18.8,98.2,0,0,13,���k��,4.2,51
2013/7/8,1:00:00,11,���쐼,0.6,18.3,97.5,0,0,13,���k��,3.2,3
2013/7/8,2:00:00,15,�É�,0,17.5,98.7,0,0,12,��,1.4,7
2013/7/8,3:00:00,2,�É�,0.2,17.5,98,0,0,2,�k��,1.5,36
2013/7/8,4:00:00,12,��,1.2,15.6,99,0,0,12,��,1.9,56
2013/7/8,5:00:00,14,�k��,0.4,16.5,99.5,0,0.03,12,��,2,3
2013/7/8,6:00:00,13,���k��,1,20,94.9,0,0.17,13,���k��,1.7,55
2013/7/8,7:00:00,3,���k��,0.6,23.5,85.2,0,0.39,3,���k��,1.7,58
2013/7/8,8:00:00,6,�쓌,1.4,24.1,74.6,0,0.58,4,��,3,32
2013/7/8,9:00:00,4,��,3.2,23.6,82.4,0,0.74,4,��,4.2,58
2013/7/8,10:00:00,4,��,2.6,23.6,75.4,0,0.88,4,��,4.1,20
2013/7/8,11:00:00,5,���쓌,3,22.6,74.3,0,0.98,5,���쓌,4.6,32
2013/7/8,12:00:00,6,�쓌,2.3,22.6,84.1,0,1.01,7,��쓌,4.7,23
2013/7/8,13:00:00,6,�쓌,2.3,22.5,74.9,0,0.99,6,�쓌,4.1,18
2013/7/8,14:00:00,6,�쓌,2.1,22.5,77.6,0,0.89,6,�쓌,3.9,23
2013/7/8,15:00:00,6,�쓌,1.6,22.8,75.2,0,0.76,5,���쓌,3.8,16
2013/7/8,16:00:00,6,�쓌,1.3,23.5,73.8,0,0.6,5,���쓌,2.8,39
2013/7/8,17:00:00,5,���쓌,2,21.3,80,0,0.42,5,���쓌,3.2,34
2013/7/8,18:00:00,5,���쓌,1.5,19.7,86.6,0,0.23,5,���쓌,2.8,36
2013/7/8,19:00:00,3,���k��,1.4,17.1,94.2,0,0.06,4,��,2.7,2
2013/7/8,20:00:00,2,�k��,1.1,16.2,96.5,0,0,3,���k��,2.4,7
2013/7/8,21:00:00,2,�k��,1.8,16.2,97.4,0,0,1,�k�k��,2.5,52
2013/7/8,22:00:00,2,�k��,0.9,15.6,98,0,0,3,���k��,2.5,16
2013/7/8,23:00:00,16,�k,0.6,15.6,98.5,0,0,1,�k�k��,3.4,23
2013/7/8,0:00:00,15,�k�k��,0.9,14.7,98.8,0,0,1,�k�k��,2.6,45
2013/7/9,1:00:00,15,�k�k��,0.3,16.5,99.2,0,0,1,�k�k��,2.8,2
2013/7/9,2:00:00,13,���k��,1.4,16.6,98.5,0,0,13,���k��,2.6,15
2013/7/9,3:00:00,11,���쐼,0.8,16.6,98.2,0,0,12,��,1.9,21
2013/7/9,4:00:00,11,���쐼,0.5,16.2,98.9,0,0,14,�k��,1.9,30
2013/7/9,5:00:00,11,���쐼,0.8,16.9,99,0,0.05,5,���쓌,1.7,32
2013/7/9,6:00:00,4,��,1.1,20.2,92.6,0,0.24,4,��,2.1,53
2013/7/9,7:00:00,6,�쓌,1.4,18.1,95.1,0,0.22,7,��쓌,3,43
2013/7/9,8:00:00,4,��,1.5,17.3,98.4,1,0.09,4,��,2.5,57
2013/7/9,9:00:00,3,���k��,0.8,17.8,98.4,0.5,0.13,7,��쓌,2,28
2013/7/9,10:00:00,8,��,0.9,20.6,98.4,0.5,0.23,7,��쓌,2.3,56
2013/7/9,11:00:00,3,���k��,1.7,22.7,95.2,0,0.48,2,�k��,2.9,40
2013/7/9,12:00:00,14,�k��,1.1,25.6,90.2,0,0.49,15,�k�k��,2.3,48
2013/7/9,13:00:00,5,���쓌,2.2,21.5,88.8,0,0.58,5,���쓌,3.8,31
2013/7/9,14:00:00,6,�쓌,1,24.5,88.7,0,0.35,6,�쓌,2,51
2013/7/9,15:00:00,5,���쓌,2,25.6,80.8,0,0.76,6,�쓌,3.5,40
2013/7/9,16:00:00,11,���쐼,4.7,28.8,64.9,0,0.6,12,��,7.7,37
2013/7/9,17:00:00,11,���쐼,3.2,28.2,66,0,0.4,12,��,8.9,10
2013/7/9,18:00:00,11,���쐼,2.7,26.9,72,0,0.18,11,���쐼,6.2,17
2013/7/9,19:00:00,11,���쐼,3,25.1,76.1,0,0.04,12,��,5,49
2013/7/9,20:00:00,11,���쐼,1.8,22.6,86.1,0,0,12,��,4.2,18
2013/7/9,21:00:00,13,���k��,1.5,20.3,93.2,0,0,11,���쐼,3.1,3
2013/7/9,22:00:00,15,�k�k��,0.3,19.5,95.2,0,0,10,�쐼,1.9,20
2013/7/9,23:00:00,12,��,1.7,18.2,97.9,0,0,12,��,3.1,58
2013/7/9,0:00:00,12,��,1.6,18.8,98.4,0,0,12,��,2.6,0
2013/7/10,1:00:00,9,�É�,0.2,18.1,97,0,0,14,�k��,3,7
2013/7/10,2:00:00,12,��,1.4,19.4,97.3,0,0,1,�k�k��,3.7,15
2013/7/10,3:00:00,6,�É�,0.2,19.5,94.4,0,0,7,��쓌,5.4,36
2013/7/10,4:00:00,16,�k,0.6,19.2,96.7,0,0,5,���쓌,2.6,10
2013/7/10,5:00:00,10,�쐼,3.1,19.7,97,0,0.01,9,��쐼,5.5,41
2013/7/10,6:00:00,8,��,1.6,18.4,96.8,4.5,0.02,9,��쐼,4.6,38
2013/7/10,7:00:00,7,��쓌,1.8,19,97,1.5,0.12,7,��쓌,3.9,59
2013/7/10,8:00:00,12,��,0.9,21.8,96,0,0.29,8,��,4.3,24
2013/7/10,9:00:00,9,��쐼,3.9,22.6,88.9,0,0.48,9,��쐼,5.9,53
2013/7/10,10:00:00,10,�쐼,3,22.3,89.5,0,0.25,9,��쐼,6.9,20
2013/7/10,11:00:00,15,�k�k��,1,23.9,90,0,0.3,9,��쐼,5.6,8
2013/7/10,12:00:00,14,�k��,1.5,25.4,83.8,0,0.35,13,���k��,2.6,54
2013/7/10,13:00:00,5,���쓌,1.8,25.1,84.2,0,0.46,14,�k��,4.8,19
2013/7/10,14:00:00,7,��쓌,0.9,25.3,88.1,0,0.26,7,��쓌,2.6,18
2013/7/10,15:00:00,3,���k��,0.8,26.5,73.2,0,0.32,6,�쓌,3.2,6
2013/7/10,16:00:00,4,��,0.8,24.8,84.6,0,0.32,5,���쓌,4.4,21
2013/7/10,17:00:00,10,�É�,0,23.4,89,0,0.1,5,���쓌,2,13
2013/7/10,18:00:00,10,�쐼,0.6,23.1,93,0,0.07,8,��,2.5,21
2013/7/10,19:00:00,8,��,0.5,22.5,92.6,0,0.02,9,��쐼,2.9,12
2013/7/10,20:00:00,13,���k��,0.7,21.7,97.7,0,0,10,�쐼,1.8,26
2013/7/10,21:00:00,16,�k,0.7,21.4,97.6,0,0,1,�k�k��,1.4,55
2013/7/10,22:00:00,8,��,0.4,20.7,98,0,0,3,���k��,1.6,35
2013/7/10,23:00:00,16,�k,0.5,20.4,98.3,0,0,14,�k��,2.2,28
2013/7/10,0:00:00,13,���k��,1.3,19.8,98.4,0,0,13,���k��,1.9,56
2013/7/11,1:00:00,13,���k��,1.6,19.6,97.3,0,0,14,�k��,3.6,32
2013/7/11,2:00:00,14,�k��,2.1,19.6,95.3,0,0,14,�k��,3.8,24
2013/7/11,3:00:00,13,���k��,2.1,17.5,98,0,0,13,���k��,2.9,47
2013/7/11,4:00:00,2,�k��,0.7,16.1,97.8,0,0,14,�k��,2.4,21
2013/7/11,5:00:00,14,�k��,0.7,18.4,92.9,0,0.05,14,�k��,3.7,41
2013/7/11,6:00:00,14,�k��,0.9,20,86.9,0,0.19,14,�k��,3.6,31
2013/7/11,7:00:00,13,���k��,1.7,21.9,78.2,0,0.39,14,�k��,3.2,7
2013/7/11,8:00:00,6,�쓌,2.3,19.9,85.6,0,0.37,6,�쓌,3.6,54
2013/7/11,9:00:00,4,��,1.9,21.9,81.7,0,0.43,4,��,3.2,53
2013/7/11,10:00:00,4,��,2.5,23.1,84.1,0,0.73,5,���쓌,3.8,58
2013/7/11,11:00:00,4,��,2.6,20.9,80.3,0,0.54,7,��쓌,6.6,57
2013/7/11,12:00:00,4,��,1.9,20.9,90.5,0,0.42,5,���쓌,5.4,4
2013/7/11,13:00:00,5,���쓌,1.2,20.2,91.5,0,0.22,4,��,3,20
2013/7/11,14:00:00,4,��,0.7,19.7,91.9,0,0.23,6,�쓌,3,3
2013/7/11,15:00:00,7,��쓌,1.8,19.8,90.8,0,0.18,1,�k�k��,3.6,22
2013/7/11,16:00:00,5,���쓌,1.5,19.3,90.3,0,0.18,7,��쓌,3.2,43
2013/7/11,17:00:00,16,�k,1,21.2,88.3,0,0.25,5,���쓌,2.5,1
2013/7/11,18:00:00,5,���쓌,1.5,20.2,90.2,0,0.17,5,���쓌,2.2,44
2013/7/11,19:00:00,4,��,0.6,17.1,95.7,0,0.06,5,���쓌,2.5,43
2013/7/11,20:00:00,9,��쐼,0.5,15.8,98.4,0,0,5,���쓌,1.4,4
2013/7/11,21:00:00,3,�É�,0.1,16.4,99.1,0,0,5,���쓌,1,21
2013/7/11,22:00:00,13,���k��,0.6,16.2,99.5,0,0,13,���k��,1.2,51
2013/7/11,23:00:00,13,�É�,0.2,16.2,99.7,0,0,13,���k��,1.8,39
2013/7/11,0:00:00,1,�k�k��,0.4,16.4,99.8,0,0,16,�k,0.9,54
2013/7/12,1:00:00,9,�É�,0.2,16.4,99.8,0,0,12,��,1,40
2013/7/12,2:00:00,12,�É�,0,16.2,99.9,0,0,9,��쐼,1,42
2013/7/12,3:00:00,12,��,0.4,15.3,100,0,0,12,��,1.2,35
2013/7/12,4:00:00,15,�k�k��,0.5,14.4,100,0,0,10,�쐼,1.6,18
2013/7/12,5:00:00,3,���k��,0.4,14.8,100,0,0.03,3,���k��,1.4,50
2013/7/12,6:00:00,14,�É�,0.2,15.8,100,0,0.12,8,��,1.4,23
2013/7/12,7:00:00,9,�É�,0.1,17.9,99.7,0,0.37,9,��쐼,1.1,31
2013/7/12,8:00:00,6,�쓌,1.7,16.7,98.5,0,0.44,6,�쓌,3.1,13
2013/7/12,9:00:00,6,�쓌,1.5,18.8,92.3,0,0.72,6,�쓌,2.8,11
2013/7/12,10:00:00,6,�쓌,2.6,18.2,84.1,0,0.9,6,�쓌,4.1,44
2013/7/12,11:00:00,6,�쓌,3.1,17.1,86.4,0,0.91,6,�쓌,4.9,56
2013/7/12,12:00:00,6,�쓌,1.9,21.1,84.5,0,1.04,7,��쓌,4.1,0
2013/7/12,13:00:00,5,���쓌,3.6,19.7,76.7,0,0.97,5,���쓌,5.5,57
2013/7/12,14:00:00,3,���k��,2.7,18.6,89.9,0,0.58,4,��,4.9,20
2013/7/12,15:00:00,4,��,1.1,19.3,86.2,0,0.3,3,���k��,4,6
2013/7/12,16:00:00,5,���쓌,1.1,18.4,89.6,0,0.1,5,���쓌,2.6,28
2013/7/12,17:00:00,5,���쓌,0.6,18.6,88.5,0,0.05,8,��,2.8,59
2013/7/12,18:00:00,8,��,3.2,18.7,84.7,0,0.03,7,��쓌,6.1,59
2013/7/12,19:00:00,8,��,5.2,18.1,87.1,0,0.01,8,��,9.9,37
2013/7/12,20:00:00,8,��,4.3,17.5,88.3,0,0,9,��쐼,10,8
2013/7/12,21:00:00,8,��,3.4,17.4,85.7,0,0,8,��,9.4,10
2013/7/12,22:00:00,9,��쐼,2.2,17.2,87.4,0,0,10,�쐼,5,23
2013/7/12,23:00:00,8,��,2.2,16.4,93.8,0,0,8,��,6.4,30
2013/7/12,0:00:00,8,��,1.5,16.1,97,0,0,8,��,4.5,23
2013/7/13,1:00:00,8,�É�,0,15.9,98.3,0,0,5,���쓌,2.4,42
2013/7/13,2:00:00,3,���k��,0.5,16.1,99,0,0,1,�k�k��,1.7,40
2013/7/13,3:00:00,4,��,2,15.7,99.4,0,0,4,��,2.5,52
2013/7/13,4:00:00,4,��,0.9,15.7,99.7,0,0,4,��,3.2,26
2013/7/13,5:00:00,4,��,1,15.9,99.8,0,0.02,4,��,1.7,52
2013/7/13,6:00:00,4,��,1.2,16.1,99.8,0,0.06,4,��,2.2,45
2013/7/13,7:00:00,6,�쓌,2.1,16.3,99.8,0,0.14,6,�쓌,3,59
2013/7/13,8:00:00,6,�쓌,1.3,16.7,99.8,0,0.2,6,�쓌,2.9,16
2013/7/13,9:00:00,7,��쓌,1.9,17.1,98.7,0,0.3,6,�쓌,3.7,43
2013/7/13,10:00:00,7,��쓌,2.3,18.1,91.3,0,0.43,8,��,3.5,57
2013/7/13,11:00:00,7,��쓌,3,18.8,90.1,0,0.59,6,�쓌,4.6,56
2013/7/13,12:00:00,7,��쓌,2.8,20.4,85.3,0,0.74,8,��,5.5,22
2013/7/13,13:00:00,7,��쓌,2.7,20.3,83.6,0,0.92,6,�쓌,5.7,38
2013/7/13,14:00:00,7,��쓌,4.1,19.8,85.3,0,0.87,8,��,6.2,27
2013/7/13,15:00:00,7,��쓌,3.6,19.2,84.5,0,0.78,7,��쓌,6.4,3
2013/7/13,16:00:00,8,��,3.7,17.6,87.8,0,0.52,7,��쓌,6.8,15
2013/7/13,17:00:00,8,��,2.2,16.4,94.8,0,0.19,7,��쓌,5.3,9
2013/7/13,18:00:00,6,�쓌,1.8,16.2,95.5,0,0.07,8,��,4.2,0
2013/7/13,19:00:00,4,��,2.3,16.2,95.5,0,0.01,4,��,3.3,58
2013/7/13,20:00:00,4,��,2.4,16,96.1,0,0,4,��,3.6,46
2013/7/13,21:00:00,2,�k��,2.5,15.6,98.3,0,0,3,���k��,3.8,13
2013/7/13,22:00:00,2,�k��,2.2,15.4,99.2,0,0,2,�k��,4.1,7
2013/7/13,23:00:00,1,�k�k��,2.7,15.5,99.6,0,0,1,�k�k��,4.7,59
2013/7/13,0:00:00,16,�k,1.6,15.7,99.7,0,0,16,�k,4.4,20
2013/7/14,1:00:00,16,�k,1.8,15.8,99.6,0,0,16,�k,3.5,9
2013/7/14,2:00:00,1,�k�k��,1.2,15.8,99.2,0,0,16,�k,3.5,37
2013/7/14,3:00:00,5,�É�,0,15.9,99,0,0,1,�k�k��,2.5,6
2013/7/14,4:00:00,1,�k�k��,0.5,15.6,98.9,0,0,13,���k��,2.2,43
2013/7/14,5:00:00,7,��쓌,0.5,15.6,99.1,0,0.01,1,�k�k��,1.4,6
2013/7/14,6:00:00,8,��,1.4,15.4,99.2,0,0.04,9,��쐼,3.1,45
2013/7/14,7:00:00,6,�쓌,1.5,15.7,99.4,0,0.1,7,��쓌,2.8,48
2013/7/14,8:00:00,4,��,1.8,17,96.9,0,0.23,4,��,2.8,48
2013/7/14,9:00:00,3,���k��,2.2,17.3,94.5,0,0.28,2,�k��,3.4,51
2013/7/14,10:00:00,3,���k��,2.8,18.5,89.5,0,0.45,4,��,4.8,31
2013/7/14,11:00:00,3,���k��,4.6,19.6,84.5,0,0.96,3,���k��,7.1,35
2013/7/14,12:00:00,3,���k��,4.6,19,86.4,0,0.93,4,��,7.1,8
2013/7/14,13:00:00,4,��,4.3,20.5,82.8,0,1.03,4,��,6.6,23
2013/7/14,14:00:00,4,��,4.6,19.2,85.7,0,0.88,3,���k��,7.4,37
2013/7/14,15:00:00,4,��,3.5,18,88.4,0,0.68,4,��,6.3,30
2013/7/14,16:00:00,3,���k��,2.7,16.9,94.5,0,0.32,4,��,5.1,19
2013/7/14,17:00:00,4,��,2.6,16.8,94.2,0,0.17,4,��,3.6,54
2013/7/14,18:00:00,3,���k��,3.7,15.9,95.3,0,0.17,3,���k��,6.5,44
2013/7/14,19:00:00,2,�k��,3.9,15,97.3,0,0.04,3,���k��,6,51
2013/7/14,20:00:00,2,�k��,2.9,15.2,98.7,0,0,2,�k��,5.8,0
2013/7/14,21:00:00,2,�k��,1.4,15.2,98.8,0,0,2,�k��,4.9,2
2013/7/14,22:00:00,3,���k��,2.5,15,99.3,0,0,2,�k��,3.8,50
2013/7/14,23:00:00,4,��,1.6,15,99.6,0,0,4,��,2.9,49
2013/7/14,0:00:00,4,��,1.4,15.1,99.8,0,0,3,���k��,2.8,44
2013/7/15,1:00:00,6,�쓌,1,15,99.9,0,0,5,���쓌,3.2,20
2013/7/15,2:00:00,5,���쓌,1.3,14.8,100,0,0,4,��,1.8,57
2013/7/15,3:00:00,14,�k��,0.6,14.8,100,0,0,1,�k�k��,2.2,48
2013/7/15,4:00:00,1,�k�k��,0.4,14.7,100,0,0,15,�k�k��,1.6,26
2013/7/15,5:00:00,14,�k��,1.1,14.3,100,0,0.02,13,���k��,2.2,34
2013/7/15,6:00:00,2,�k��,0.8,14.8,100,0,0.08,2,�k��,1.7,54
2013/7/15,7:00:00,3,���k��,0.3,15.1,100,0,0.16,3,���k��,2.1,44
2013/7/15,8:00:00,4,��,1.8,16.3,99.7,0,0.28,3,���k��,3.1,59
2013/7/15,9:00:00,4,��,2.4,17.7,97.9,0,0.45,5,���쓌,3.7,57
2013/7/15,10:00:00,4,��,3.4,19.2,92.3,0,0.68,4,��,4.7,59
2013/7/15,11:00:00,4,��,4.3,20.6,82.6,0,0.89,3,���k��,6.6,59
2013/7/15,12:00:00,4,��,4.8,20.5,87,0,0.96,4,��,7.9,33
2013/7/15,13:00:00,4,��,3.5,20,86.2,0,0.57,5,���쓌,7,0
2013/7/15,14:00:00,3,���k��,1.3,20.6,86.9,0,0.35,4,��,4.6,0
2013/7/15,15:00:00,5,���쓌,2.6,19.6,88.1,0,0.31,5,���쓌,3.8,53
2013/7/15,16:00:00,16,�k,0.8,20.1,89.9,0,0.27,4,��,2.9,3
2013/7/15,17:00:00,5,���쓌,1.9,18.7,91.5,0,0.23,5,���쓌,3.1,32
2013/7/15,18:00:00,6,�쓌,1.5,17.3,95.1,0,0.15,4,��,2.7,12
2013/7/15,19:00:00,3,���k��,1.7,16.7,98.5,0,0.01,3,���k��,2.3,53
2013/7/15,20:00:00,4,��,1.7,16.7,99.1,0,0,4,��,2.7,52
2013/7/15,21:00:00,3,���k��,1,16.7,99.3,0,0,3,���k��,3.5,10
2013/7/15,22:00:00,3,���k��,1.9,16.7,99.5,0,0,2,�k��,3,33
2013/7/15,23:00:00,2,�k��,1.3,16.7,99.6,0,0,2,�k��,2.9,13
2013/7/15,0:00:00,13,���k��,0.9,16.7,99.7,0,0,2,�k��,2.7,7
2013/7/16,1:00:00,1,�k�k��,0.5,17,99.7,0,0,13,���k��,1.3,0
2013/7/16,2:00:00,5,���쓌,2.5,16,99.7,0,0,5,���쓌,4.2,27
2013/7/16,3:00:00,6,�쓌,0.8,15.9,99.6,0,0,5,���쓌,3.6,5
2013/7/16,4:00:00,2,�k��,0.7,15.9,99.5,0,0,5,���쓌,1.1,0
2013/7/16,5:00:00,2,�k��,1,16,99.4,0,0.02,2,�k��,1.6,18
2013/7/16,6:00:00,2,�k��,1.6,16.3,98.7,0,0.06,2,�k��,2.6,43
2013/7/16,7:00:00,3,���k��,1.9,16.5,95.4,0,0.12,3,���k��,2.9,44
2013/7/16,8:00:00,4,��,2.7,17.1,93.2,0,0.22,5,���쓌,3.7,43
2013/7/16,9:00:00,4,��,2.5,17.8,91.2,0,0.31,4,��,3.7,50
2013/7/16,10:00:00,4,��,2.5,18,87.7,0,0.41,5,���쓌,4.6,35
2013/7/16,11:00:00,4,��,2.8,17.9,87.4,0,0.41,4,��,4.2,44
2013/7/16,12:00:00,4,��,3.1,17.3,89.2,0,0.4,5,���쓌,4.8,39
2013/7/16,13:00:00,4,��,2.6,17.1,89.8,0,0.38,4,��,4.3,26
2013/7/16,14:00:00,4,��,3.2,16.8,91.5,0,0.42,4,��,4.8,38
2013/7/16,15:00:00,5,���쓌,2.8,16.9,89.7,0,0.32,5,���쓌,4.3,12
2013/7/16,16:00:00,4,��,2.9,16.4,91.4,0,0.26,4,��,4.6,42
2013/7/16,17:00:00,5,���쓌,2.7,16.1,91.2,0,0.14,4,��,4.5,38
2013/7/16,18:00:00,4,��,2.2,15.7,91.9,0,0.06,4,��,3.2,56
2013/7/16,19:00:00,3,���k��,1.4,15.2,96.9,0,0.02,3,���k��,3.9,26
2013/7/16,20:00:00,3,���k��,1.6,14.9,98.6,0,0,3,���k��,2.5,45
2013/7/16,21:00:00,5,���쓌,1.1,15,99,0.5,0,4,��,2,8
2013/7/16,22:00:00,3,���k��,1,14.7,99.2,1,0,3,���k��,2.8,30
2013/7/16,23:00:00,2,�k��,1,14.6,99.3,1.5,0,2,�k��,2.1,25
2013/7/16,0:00:00,2,�k��,1.2,14.7,99.4,0.5,0,3,���k��,2.1,57
2013/7/17,1:00:00,2,�k��,1.2,14.7,99.4,0.5,0,2,�k��,2.1,47
2013/7/17,2:00:00,2,�k��,1.4,14.6,99.2,0,0,2,�k��,2.1,59
2013/7/17,3:00:00,3,���k��,2.2,14.3,97.9,0,0,3,���k��,4.2,18
2013/7/17,4:00:00,3,���k��,2.3,14.2,97.6,0,0,3,���k��,3.8,5
2013/7/17,5:00:00,3,���k��,1.6,14.2,99.1,0,0.01,4,��,4.5,5
2013/7/17,6:00:00,3,���k��,0.9,14.6,99.3,0,0.05,4,��,2.6,24
2013/7/17,7:00:00,2,�k��,1.5,15.3,96.9,0,0.12,3,���k��,2.9,57
2013/7/17,8:00:00,4,��,1.8,16.2,92.7,0.5,0.22,4,��,3.1,46
2013/7/17,9:00:00,4,��,2.8,17.2,88.7,0,0.41,4,��,4.1,43
2013/7/17,10:00:00,3,���k��,1.7,17.1,84.1,0,0.42,3,���k��,4.6,11
2013/7/17,11:00:00,5,���쓌,1.8,16.7,81.2,0,0.37,4,��,2.9,5
2013/7/17,12:00:00,7,��쓌,1.4,17.4,79.4,0,0.47,6,�쓌,2.9,51
2013/7/17,13:00:00,5,���쓌,2.4,17.9,83.2,0,0.56,5,���쓌,3.5,56
2013/7/17,14:00:00,5,���쓌,2.5,18.8,82.3,0,0.75,5,���쓌,4,59
2013/7/17,15:00:00,4,��,3,18.4,80,0,0.67,6,�쓌,4.4,28
2013/7/17,16:00:00,5,���쓌,2.9,17.2,80.7,0,0.54,5,���쓌,4.3,45
2013/7/17,17:00:00,6,�쓌,2.1,16.3,85.6,0,0.3,5,���쓌,4.2,0
2013/7/17,18:00:00,7,��쓌,0.8,15.7,90.6,0,0.11,6,�쓌,2.5,3
2013/7/17,19:00:00,7,��쓌,0.8,14.1,95.8,0,0.02,7,��쓌,2.7,27
2013/7/17,20:00:00,8,�É�,0.2,12.5,97.7,0,0,7,��쓌,1.3,39
2013/7/17,21:00:00,16,�k,0.4,14.1,99.1,0,0,1,�k�k��,1,54
2013/7/17,22:00:00,15,�k�k��,0.4,14.4,98.8,0,0,14,�k��,1.6,30
2013/7/17,23:00:00,11,�É�,0,14.4,98.3,0,0,16,�k,0.8,37
2013/7/17,0:00:00,1,�k�k��,0.6,14.5,97.9,0,0,1,�k�k��,1.1,57
2013/7/18,1:00:00,3,���k��,3.1,14,98,0,0,4,��,4.7,42